Hourly Data Report for December 03, 2021

CARBERRY CS
MANITOBA
Current Station Operator: ECCC - MSC

49°54'20.900" N
99°21'26.800" W
383.50 m
5010547
71170
WZE

Download Data

Hourly Data (December 2021)
Hourly Data Report for December 3, 2021
TIME
LST
Temp Definition
°C
Dew Point Definition
°C
Rel Hum Definition
%
Precip. Amount Definition
mm

Wind Dir Definition
10's deg

Wind Spd Definition
km/h
Visibility Definition
km
Stn Press Definition
kPa
Hmdx Definition


Wind Chill Definition


Weather Definition


00:00 -5.0 -6.2 91 0.0 7 6   96.97   -8 LegendNANA
01:00 -4.5 -5.6 92 0.0 17 5   96.97   -7 LegendNANA
02:00 -4.1 -5.0 94 0.0 19 8   96.96   -8 LegendNANA
03:00 -3.9 -4.7 94 0.0 21 11   96.94   -8 LegendNANA
04:00 -2.5 -3.1 96 0.0 25 19   96.95   -8 LegendNANA
05:00 -2.6 -3.6 93 0.0 26 29   96.91   -10 LegendNANA
06:00 -2.5 -6.1 76 0.0 27 35   96.92   -10 LegendNANA
07:00 -3.4 -7.2 75 0.0 26 36   96.98   -12 LegendNANA
08:00 -4.3 -8.8 71 0.0 26 36   97.03   -13 LegendNANA
09:00 -4.3 -9.9 65 0.0 26 36   97.05   -13 LegendNANA
10:00 -3.9 -9.9 63 0.0 26 38   97.03   -12 LegendNANA
11:00 -2.6 -9.4 59 0.0 26 41   97.07   -11 LegendNANA
12:00 -1.8 -9.9 54 0.0 27 45   97.05   -10 LegendNANA
13:00 -1.4 -9.9 52 0.0 27 45   97.03   -10 LegendNANA
14:00 -1.3 -9.5 54 0.0 28 43   97.05   -9 LegendNANA
15:00 -1.5 -9.7 53 0.0 28 44   97.09   -10 LegendNANA
16:00 -2.1 -10.3 53 0.0 28 46   97.15   -11 LegendNANA
17:00 -3.0 -10.2 57 0.0 28 40   97.21   -11 LegendNANA
18:00 -3.6 -10.2 60 0.0 27 38   97.29   -12 LegendNANA
19:00 -4.0 -10.6 60 0.0 28 35   97.33   -12 LegendNANA
20:00 -4.8 -10.5 64 0.0 28 29   97.40   -13 LegendNANA
21:00 -5.9 -10.9 68 0.0 27 20   97.50   -13 LegendNANA
22:00 -6.8 -11.2 71 0.0 28 14   97.58   -13 LegendNANA
23:00 -8.1 -11.7 75 0.0 27 18   97.60   -15 LegendNANA

Notes on Data Quality.

Legend

  • E = Estimated
  • M = Missing
  • NA = Not Available*
  • [empty] = Indicates an unobserved value
Date modified: